Regional Weather Roundup
Issued by NWS Jackson, KY

Home | Current Version | Previous Version | Graphics & Text | Print | Product List | Glossary On
Versions: 1 2 3 4 5 6 7 8 9 10 11 12 13 14 15 16 17 18 19 20 21 22 23 24 25 26 27 28 29 30 31 32 33 34 35 36 37 38 39 40 41 42 43 44 45 46 47 48 49 50
000
ASUS43 KJKL 060610
RWRJKL

EAST KENTUCKY HOURLY WEATHER ROUNDUP
NATIONAL WEATHER SERVICE JACKSON KY
200 AM EDT WED MAY 06 2015

NOTE: "FAIR" INDICATES FEW OR NO CLOUDS BELOW 12,000 FEET WITH
NO SIGNIFICANT WEATHER AND/OR OBSTRUCTIONS TO VISIBILITY.

* THESE REPORTS ARE NOT UNDER NWS QUALITY CONTROL AND MAY NOT
  REPORT WEATHER SUCH AS PRECIPITATION AND FOG.

KYZ079-080-083-085-087-088-110-112-115-119-120-060700
...EASTERN KENTUCKY...

CITY           SKY/WX    TMP DP  RH WIND       PRES   REMARKS
JACKSON        CLEAR     70  49  47 CALM      30.25S
6HR MIN TEMP:  68; 6HR MAX TEMP:  79;

LONDON         CLEAR     60  53  77 CALM      30.24F
6HR MIN TEMP:  60; 6HR MAX TEMP:  81;

SOMERSET*      MOCLDY    57  54  88 CALM      30.25S
MONTICELLO*    CLEAR     57  56  97 CALM      30.26F
6HR MIN TEMP:  57; 6HR MAX TEMP:  78;

MIDDLESBORO*   CLEAR     58  55  89 CALM      30.27S
6HR MIN TEMP:  58; 6HR MAX TEMP:  76;

HARLAN APT*    PTCLDY    57  55  94 CALM      30.28S
HAZARD APT*    CLEAR     59  55  88 CALM      30.25S
BLACK MTN*       N/A     61  50  67 S6          N/A
PIKEVILLE APT* CLEAR     64  55  72 S5        30.25S
BIG SANDY*     CLEAR     62  56  79 CALM      30.25S
6HR MIN TEMP:  61; 6HR MAX TEMP:  79;

MOREHEAD APT*  LGT RAIN  64  54  68 CALM      30.25F
$$

KYZ035-036-041-042-044-050-067-078-099-060700
...CENTRAL KENTUCKY...

CITY           SKY/WX    TMP DP  RH WIND       PRES   REMARKS
MT STERLING*   CLEAR     59  55  88 CALM      30.25S
FLEMING/MASON* CLEAR     63  54  72 S5        30.23F
DANVILLE*      CLEAR     59  54  82 CALM      30.25S
RICHMOND*      PTCLDY    59  55  88 CALM      30.23F
LEXINGTON      CLEAR     61  55  81 S5        30.23S
6HR MIN TEMP:  60; 6HR MAX TEMP:  77;

FRANKFORT      CLEAR     58  53  84 CALM      30.21S
6HR MIN TEMP:  58; 6HR MAX TEMP:  79;

$$

KYZ091>093-OHZ055-061-077-WVZ005-015-034-035-042-060700
...SOUTHERN OHIO/WEST VIRGINIA...

CITY           SKY/WX    TMP DP  RH WIND       PRES   REMARKS
COVINGTON      CLEAR     59  56  89 S6        30.20F
COLUMBUS       PTCLDY    59  56  89 E3        30.20S
DAYTON         PTCLDY    64  54  69 NW5       30.22R
WILMINGTON     CLEAR     62  51  67 S3        30.21S
HUNTINGTON     CLEAR     60  56  86 CALM      30.22S
CHARLESTON     CLEAR     59  56  89 CALM      30.22S
PINEVILLE*     CLEAR     57  57 100 MISG      30.32S
BECKLEY        CLOUDY    63  51  65 CALM      30.29F
BLUEFIELD      MOCLDY    65  49  56 CALM      30.31F
$$

VAZ002-007-008-TNZ017-027-036-066-071-060700
...SOUTHWEST VIRGINIA/EAST TENNESSEE...

CITY           SKY/WX    TMP DP  RH WIND       PRES   REMARKS
WISE*          PTCLDY    59  48  67 SW5       30.32F
JONESVILLE*    PTCLDY    55  55 100 CALM      30.29S
ABINGDON*      CLOUDY    62  56  80 CALM      30.30S
BRISTOL        PTCLDY    63  55  75 CALM      30.28R
KNOXVILLE      MOCLDY    67  55  65 NW3       30.23F
OAK RIDGE      CLOUDY    69  59  70 CALM      30.26S
CROSSVILLE     CLOUDY    65  54  67 CALM      30.27F
NASHVILLE      MOCLDY    67  56  67 S3        30.21S
$$

...KEY TO REMARKS...
VSB - VISIBILITY IN MILES
WCI - WIND CHILL INDEX
HX  - HEAT INDEX

$$



USA.gov is the U.S. government's official web portal to all federal, state and local government web resources and services.